Погода в Лландидно

Великобритания     53°19′06″N   3°49′26″W
темп.,
°C
ветер,
м/с
пор.,
м/с
влажн.,
%
обл.,
%
осадки,
мм/ч
давл.,
гПа
погр.,
м
13 мая, чт
чт1301:00+6юв119595 0.0 100917
04:00+5в1196100 0.0 100913
07:00+7всв0189100 0.0 100957
10:00+11ссв2367100 0.0 1009688
13:00+12с335980 0.0 1009853
16:00+12ссз3357100 0.0 1009682
19:00+10сз2360100 0.0 1009377
22:00+7ююз1178100 0.1 101018
14 мая, пт
пт1401:00+7ююз119295 1.0 101015
04:00+7ю119671 0.0 101021
07:00+7юв229562 0.0 101089
10:00+10юв128189 0.3 1010384
13:00+11ссз018197 1.3 1009417
16:00+9сз1196100 1.6 100877
19:00+9вюв119695 3.3 100644
22:00+8ю1195100 0.6 100531
15 мая, сб
сб1501:00+7ю2397100 1.1 100267
04:00+7вюв2296100 3.6 100047
07:00+7юв2795100 3.6 999359
10:00+7юв4992100 0.1 998855
13:00+8юв4986100 0.2 997754
16:00+12ю366580 0.1 9961271
19:00+11ююз466722 0.1 996909
22:00+5ю349695 0.0 99778
16 мая, вс
вс1601:00+5ююв3396100 0.0 99753
04:00+4ююв229590 0.0 99627
07:00+6юв128454 0.0 99679
10:00+12в345847 0.0 9961183
13:00+13ссв446282 0.1 9971067
16:00+12с446659 0.4 9981097
19:00+10ссз347781 0.6 999489
22:00+7зсз119644 0.3 100215
17 мая, пн
пн1701:00+7ююз119690 0.6 100317
04:00+6з219795 0.0 100432
07:00+8сз3697100 0.7 1006524
10:00+7сз599599 1.0 1008721
13:00+8сз5882100 1.2 10101051
16:00+10зсз5866100 0.1 10121324
19:00+9зсз597793 0.4 10131073
22:00+6з4108482 0.3 1015457